Greenville Downtown, SC

8:53 PM EDT on August 16, 2017 (GMT -0400)
Greenville Downtown

Weather History for KGMU - February, 2011

Change the Weather History Date:

Saturday, February 12, 2011

  Actual Average Record
Temperature  
Mean Temperature 40 °F -  
Max Temperature 55 °F 52 °F 80 °F (2017)
Min Temperature 26 °F 35 °F 19 °F (2012)
Degree Days  
Heating Degree Days 24    
Moisture  
Dew Point 17 °F    
Average Humidity 40    
Maximum Humidity 66    
Minimum Humidity 22    
Precipitation  
Precipitation 0.00 in - - ()
Sea Level Pressure  
Sea Level Pressure 30.21 in    
Wind  
Wind Speed 3 mph (WSW)    
Max Wind Speed 10 mph    
Max Gust Speed -    
Visibility 10 miles    
Events      
Averages and records for this station are not official NWS values.
T = Trace of Precipitation, MM = Missing Value Source: NWS Daily Summary

Daily Weather History Graph

Daily Weather History Graph

Search for Another Location

Airport or City:

Trip Planner

Search our weather history database for the weather conditions in past years. The results will help you decide how hot, cold, wet, or windy it might be!

Date:

Astronomy

Feb. 12, 2011 Rise Set
Actual Time 7:18 AM EST 6:09 PM EST
Civil Twilight 6:52 AM EST 6:35 PM EST
Nautical Twilight 6:22 AM EST 7:04 PM EST
Astronomical Twilight 5:53 AM EST 7:34 PM EST
Moon 12:21 PM EST (2/12) 2:20 AM EST (2/12)
Length of Visible Light 11h 42m
Length of Day
10h 50m
Waxing Gibbous, 64% of the Moon is Illuminated
Feb 12
Waxing Gibbous
Feb 18
Full
Feb 24
Last Quarter
Mar 4
New
Mar 12
First Quarter

Hourly Weather History & Observations

Time (EST) Temp. Windchill Dew Point Humidity Pressure Visibility Wind Dir Wind Speed Gust Speed Precip Events Conditions
12:53 AM 33.1 °F - 21.0 °F 61% 30.15 in 10.0 mi Calm Calm - N/A   Clear
1:53 AM 33.1 °F - 17.1 °F 52% 30.15 in 10.0 mi Calm Calm - N/A   Clear
2:53 AM 30.0 °F - 17.1 °F 59% 30.16 in 10.0 mi Calm Calm - N/A   Clear
3:53 AM 28.9 °F 25.2 °F 14.0 °F 54% 30.17 in 10.0 mi WSW 3.5 mph - N/A   Clear
4:53 AM 28.9 °F - 14.0 °F 54% 30.19 in 10.0 mi Calm Calm - N/A   Clear
5:53 AM 28.0 °F - 12.9 °F 53% 30.20 in 10.0 mi Calm Calm - N/A   Clear
6:53 AM 27.0 °F - 14.0 °F 58% 30.23 in 10.0 mi Calm Calm - N/A   Clear
7:53 AM 26.1 °F 20.5 °F 16.0 °F 66% 30.24 in 10.0 mi South 4.6 mph - N/A   Clear
8:53 AM 33.1 °F 30.0 °F 17.1 °F 52% 30.26 in 10.0 mi WSW 3.5 mph - N/A   Clear
10:53 AM 45.0 °F 39.7 °F 14.0 °F 29% 30.26 in 10.0 mi SW 10.4 mph - N/A   Clear
11:53 AM 48.9 °F - 15.1 °F 26% 30.25 in 10.0 mi West 9.2 mph - N/A   Clear
12:53 PM 52.0 °F - 16.0 °F 24% 30.23 in 10.0 mi West 9.2 mph - N/A   Clear
1:53 PM 54.0 °F - 17.1 °F 23% 30.20 in 10.0 mi SW 9.2 mph - N/A   Clear
2:53 PM 55.9 °F - 17.1 °F 22% 30.19 in 10.0 mi SW 10.4 mph - N/A   Clear
3:53 PM 55.9 °F - 17.1 °F 22% 30.18 in 10.0 mi SW 9.2 mph - N/A   Clear
4:53 PM 55.9 °F - 18.0 °F 23% 30.18 in 10.0 mi SSW 9.2 mph - N/A   Clear
5:53 PM 54.0 °F - 18.0 °F 24% 30.19 in 10.0 mi SSW 6.9 mph - N/A   Clear
6:53 PM 50.0 °F - 19.0 °F 29% 30.22 in 10.0 mi SW 5.8 mph - N/A   Clear
7:53 PM 46.0 °F 43.1 °F 19.9 °F 35% 30.24 in 10.0 mi WSW 5.8 mph - N/A   Clear
8:53 PM 46.0 °F 44.8 °F 17.1 °F 31% 30.25 in 10.0 mi NW 3.5 mph - N/A   Clear
9:53 PM 43.0 °F 41.3 °F 18.0 °F 37% 30.26 in 10.0 mi WNW 3.5 mph - N/A   Clear
10:53 PM 39.0 °F - 19.0 °F 45% 30.26 in 10.0 mi Calm Calm - N/A   Clear
11:53 PM 39.0 °F - 19.9 °F 46% 30.25 in 10.0 mi Calm Calm - N/A   Clear